Date String (YYYY-MM-DD hh:mm:ss) UTC,Instrument flags,absolute air pressure of the measurement (hPa),sample flow rate (lpm),inlet stack bypass flow (lpm),air temperature of the measurement (°C),ambient temperature measured by the external sensor (°C),aerosol sample conditioner tube jacket temperature (°C),OPC LED temperature (°C),internal box temperature (°C),relative humidity of the measurement (%),span deviation,mass concentration of particles derived from Lorenz-Mie calculation of OPC scattering (μg/m³),mass concentration of particles derived from Lorenz-Mie calculation of OPC scattering (μg/m³),mass concentration of particles derived from Lorenz-Mie calculation of OPC scattering (μg/m³)
DateTimeUTC,F1_M11,P_M11,Q1_M11,Q2_M11,T1_M11,T2_M11,T3_M11,T4_M11,T5_M11,U1_M11,ZSPAN_M11,X0_M11,X2_M11,X1_M11
2023-08-24 03:00:00,SystemResetWarning,0833.4,4.99,000.00,027.4,026.0,000.0,035.8,029.3,29.3,0001.7,0014.16,0007.25,0006.31
2023-08-24 03:01:00,SystemResetWarning,0833.4,5.00,000.00,027.5,026.3,000.0,035.8,029.3,29.3,0001.6,0013.43,0007.27,0006.32
2023-08-24 03:02:00,SystemResetWarning,0833.4,5.00,000.00,027.5,026.5,000.0,035.8,029.4,29.3,0001.5,0013.55,0007.24,0006.33
2023-08-24 03:03:00,SystemResetWarning,0833.3,5.00,000.00,027.6,025.5,000.0,035.7,029.2,29.4,0001.6,0014.46,0007.27,0006.34
2023-08-24 03:04:00,SystemResetWarning,0833.3,5.01,000.00,027.5,023.9,000.0,035.6,028.9,29.5,0001.8,0014.48,0007.29,0006.34
2023-08-24 03:05:00,SystemResetWarning,0833.2,5.00,000.00,027.4,023.5,000.0,035.6,028.7,29.5,0002.0,0014.22,0007.28,0006.34
2023-08-24 03:06:00,SystemResetWarning,0833.3,5.01,000.00,027.3,023.8,000.0,035.6,028.7,29.6,0001.9,0013.96,0007.28,0006.35
2023-08-24 03:07:00,SystemResetWarning,0833.3,5.01,000.00,027.3,024.2,000.0,035.6,028.8,29.6,0001.9,0014.13,0007.28,0006.37
2023-08-24 03:08:00,SystemResetWarning,0833.2,5.00,000.00,027.3,024.7,000.0,035.7,028.9,29.6,0001.9,0013.85,0007.26,0006.37
2023-08-24 03:09:00,SystemResetWarning,0833.2,5.00,000.00,027.3,025.1,000.0,035.7,029.0,29.6,0002.1,0013.94,0007.23,0006.36
2023-08-24 03:10:00,SystemResetWarning,0833.2,4.99,000.00,027.4,025.5,000.0,035.7,029.1,29.4,0002.4,0014.06,0007.20,0006.36
2023-08-24 03:11:00,SystemResetWarning,0833.3,5.00,000.00,027.4,025.8,000.0,035.7,029.2,29.2,0002.1,0014.25,0007.23,0006.35
2023-08-24 03:12:00,SystemResetWarning,0833.3,5.00,000.00,027.4,026.1,000.0,035.8,029.3,29.2,0001.9,0014.54,0007.23,0006.35
2023-08-24 03:13:00,SystemResetWarning,0833.2,5.00,000.00,027.5,026.3,000.0,035.8,029.4,29.1,0001.9,0015.01,0007.27,0006.35
2023-08-24 03:14:00,SystemResetWarning,0833.3,5.00,000.00,027.6,026.4,000.0,035.8,029.4,28.8,0001.6,0014.37,0007.26,0006.35
2023-08-24 03:15:00,SystemResetWarning,0833.2,4.98,000.00,027.6,025.0,000.0,035.7,029.2,28.7,0001.6,0015.04,0007.24,0006.32
2023-08-24 03:16:00,SystemResetWarning,0833.2,5.01,000.00,027.5,023.6,000.0,035.6,028.9,28.9,0001.7,0015.91,0007.21,0006.28
2023-08-24 03:17:00,SystemResetWarning,0833.2,5.02,000.00,027.4,023.5,000.0,035.6,028.7,29.1,0001.4,0016.14,0007.15,0006.25
2023-08-24 03:18:00,SystemResetWarning,0833.2,5.00,000.00,027.3,023.8,000.0,035.6,028.7,29.4,0001.5,0015.83,0007.10,0006.23
2023-08-24 03:19:00,SystemResetWarning,0833.3,5.00,000.00,027.3,024.3,000.0,035.7,028.8,29.4,0001.2,0015.73,0007.08,0006.21
2023-08-24 03:20:00,SystemResetWarning,0833.3,5.00,000.00,027.3,024.8,000.0,035.7,028.9,29.3,0000.6,0015.81,0007.07,0006.19
2023-08-24 03:21:00,SystemResetWarning,0833.3,5.00,000.00,027.3,025.2,000.0,035.7,029.1,29.1,0000.1,0016.07,0007.09,0006.17
2023-08-24 03:22:00,SystemResetWarning,0833.4,5.00,000.00,027.4,025.6,000.0,035.8,029.2,29.1,0000.4,0015.90,0007.10,0006.18
2023-08-24 03:23:00,SystemResetWarning,0833.4,5.00,000.00,027.4,025.9,000.0,035.8,029.2,28.9,0000.7,0015.55,0007.08,0006.16
2023-08-24 03:24:00,SystemResetWarning,0833.4,5.01,000.00,027.5,026.2,000.0,035.8,029.3,29.0,0000.7,0014.78,0006.98,0006.12
2023-08-24 03:25:00,SystemResetWarning,0833.4,5.00,000.00,027.5,026.4,000.0,035.8,029.4,29.0,0001.1,0014.41,0006.99,0006.09
2023-08-24 03:26:00,SystemResetWarning,0833.4,5.00,000.00,027.6,026.6,000.0,035.9,029.5,28.8,0001.2,0014.18,0007.00,0006.08
2023-08-24 03:27:00,SystemResetWarning,0833.4,4.98,000.00,027.6,025.5,000.0,035.8,029.3,28.7,0000.8,0013.93,0006.95,0006.09
2023-08-24 03:28:00,SystemResetWarning,0833.4,5.01,000.00,027.5,023.9,000.0,035.7,029.0,28.7,0001.2,0013.61,0006.97,0006.08
2023-08-24 03:29:00,SystemResetWarning,0833.4,5.01,000.00,027.4,023.5,000.0,035.6,028.8,29.0,0001.1,0013.57,0007.02,0006.09
2023-08-24 03:30:00,SystemResetWarning,0833.4,4.99,000.00,027.4,023.8,000.0,035.6,028.8,29.1,0001.3,0013.68,0007.04,0006.08
2023-08-24 03:31:00,SystemResetWarning,0833.4,5.00,000.00,027.3,024.2,000.0,035.7,028.9,29.1,0001.8,0013.43,0007.06,0006.08
2023-08-24 03:32:00,SystemResetWarning,0833.4,5.01,000.00,027.3,024.7,000.0,035.7,029.0,29.1,0002.1,0012.86,0007.06,0006.07
2023-08-24 03:33:00,SystemResetWarning,0833.4,5.01,000.00,027.4,025.1,000.0,035.8,029.1,28.9,0002.0,0013.30,0007.00,0006.05
2023-08-24 03:34:00,SystemResetWarning,0833.4,4.99,000.00,027.4,025.5,000.0,035.8,029.2,28.8,0001.8,0013.74,0007.00,0006.05
2023-08-24 03:35:00,SystemResetWarning,0833.5,5.00,000.00,027.5,025.9,000.0,035.8,029.3,28.7,0002.1,0013.89,0007.03,0006.07
2023-08-24 03:36:00,SystemResetWarning,0833.5,5.00,000.00,027.5,026.1,000.0,035.8,029.3,28.4,0002.3,0013.54,0007.00,0006.08
2023-08-24 03:37:00,SystemResetWarning,0833.5,5.00,000.00,027.6,026.4,000.0,035.9,029.4,28.3,0002.5,0012.95,0006.97,0006.07
2023-08-24 03:38:00,SystemResetWarning,0833.5,5.00,000.00,027.6,026.6,000.0,035.9,029.5,28.2,0002.6,0012.27,0006.99,0006.07
2023-08-24 03:39:00,SystemResetWarning,0833.5,4.99,000.00,027.7,026.0,000.0,035.9,029.4,28.0,0002.4,0012.24,0007.01,0006.08
2023-08-24 03:40:00,SystemResetWarning,0833.5,4.99,000.00,027.6,024.3,000.0,035.7,029.1,28.0,0002.2,0012.29,0006.98,0006.07
2023-08-24 03:41:00,SystemResetWarning,0833.4,5.01,000.00,027.5,023.5,000.0,035.7,028.8,28.3,0002.2,0012.30,0006.96,0006.08
2023-08-24 03:42:00,SystemResetWarning,0833.4,5.01,000.00,027.4,023.7,000.0,035.7,028.8,28.4,0001.9,0012.48,0006.97,0006.08
2023-08-24 03:43:00,SystemResetWarning,0833.5,4.99,000.00,027.4,024.1,000.0,035.7,028.9,28.7,0002.0,0012.43,0006.94,0006.08
2023-08-24 03:44:00,SystemResetWarning,0833.5,5.00,000.00,027.4,024.6,000.0,035.7,029.0,28.8,0002.2,0012.44,0006.96,0006.09
2023-08-24 03:45:00,SystemResetWarning,0833.5,5.01,000.00,027.4,025.0,000.0,035.8,029.1,28.8,0002.4,0011.99,0006.94,0006.08
2023-08-24 03:46:00,SystemResetWarning,0833.5,5.00,000.00,027.4,025.4,000.0,035.8,029.2,28.8,0002.5,0012.01,0006.96,0006.08
2023-08-24 03:47:00,SystemResetWarning,0833.6,4.99,000.00,027.5,025.8,000.0,035.8,029.3,28.9,0002.2,0012.30,0006.96,0006.07
2023-08-24 03:48:00,SystemResetWarning,0833.6,5.00,000.00,027.5,026.1,000.0,035.9,029.3,28.9,0001.6,0012.43,0006.97,0006.08
2023-08-24 03:49:00,SystemResetWarning,0833.6,5.01,000.00,027.6,026.3,000.0,035.9,029.4,29.0,0001.3,0012.77,0007.00,0006.09
2023-08-24 03:50:00,SystemResetWarning,0833.6,5.01,000.00,027.6,026.5,000.0,035.9,029.5,29.1,0001.0,0012.76,0007.00,0006.10
2023-08-24 03:51:00,SystemResetWarning,0833.5,4.99,000.00,027.7,026.3,000.0,035.9,029.5,29.1,0001.2,0012.74,0007.02,0006.12
2023-08-24 03:52:00,SystemResetWarning,0833.4,4.99,000.00,027.6,024.7,000.0,035.8,029.2,29.1,0001.6,0013.23,0007.06,0006.14
2023-08-24 03:53:00,SystemResetWarning,0833.5,5.00,000.00,027.5,023.6,000.0,035.7,028.9,29.2,0002.1,0013.00,0007.06,0006.15
2023-08-24 03:54:00,SystemResetWarning,0833.4,5.00,000.00,027.4,023.7,000.0,035.7,028.8,29.5,0001.9,0013.23,0007.10,0006.17
2023-08-24 03:55:00,SystemResetWarning,0833.4,5.02,000.00,027.4,024.1,000.0,035.7,028.9,29.7,0001.8,0013.06,0007.10,0006.18
2023-08-24 03:56:00,SystemResetWarning,0833.4,5.00,000.00,027.4,024.5,000.0,035.8,029.0,29.8,0001.5,0012.97,0007.11,0006.19
2023-08-24 03:57:00,SystemResetWarning,0833.4,5.00,000.00,027.4,025.0,000.0,035.8,029.1,29.8,0001.1,0012.81,0007.11,0006.19
2023-08-24 03:58:00,SystemResetWarning,0833.4,5.00,000.00,027.4,025.4,000.0,035.8,029.2,29.8,0001.2,0012.70,0007.11,0006.20
2023-08-24 03:59:00,SystemResetWarning,0833.5,5.00,000.00,027.5,025.7,000.0,035.8,029.2,29.7,0001.4,0013.05,0007.13,0006.19
